Kuchera_Ratio
9.3 11.9 12.6 11.7 11.9 11.7 10.1 9.7 12.2 16.1 15.3 12.7 11.9 7.4 6.7 4.2 2.0 0.0 0.0 0.0 0.0 0.0 0.0 0.0 0.0 0.0 0.0 0.0 0.0 0.0 0.0 0.0 0.0 0.0 0.0 0.0 0.0 0.0
10.3 12.2 12.2 11.9 11.3 10.5 10.1 8.7 9.3 12.2 14.4 12.3 11.9 9.0 8.1 4.1 2.0 0.0 0.7 0.0 0.0 0.0 0.0 0.0 0.0 0.0 0.0 0.0 0.0 0.0 0.0 0.0 0.0 0.0 0.0 0.0 0.0 0.0
11.5 12.4 12.2 10.3 10.7 10.1 9.1 9.5 9.9 10.3 13.1 11.0 10.3 9.7 9.4 8.4 6.8 3.0 1.8 1.2 0.9 0.0 0.0 0.0 0.0 0.0 0.0 0.0 0.0 0.0 0.0 0.0 0.0 0.0 0.0 0.0 0.0 0.0
12.0 11.9 11.3 8.7 11.3 9.9 10.1 10.3 10.1 9.5 11.8 12.7 11.2 11.9 10.2 8.4 7.6 7.1 2.1 0.0 0.7 0.0 0.0 0.0 0.0 0.0 0.0 0.0 0.0 0.0 0.0 0.0 0.0 0.0 0.0 0.0 0.0 0.0
11.3 10.9 11.1 11.7 12.2 11.9 10.7 10.9 10.1 8.7 10.1 12.0 12.2 10.8 10.0 9.0 8.3 8.5 5.3 4.1 1.1 0.0 0.0 0.0 0.0 0.0 0.0 0.0 0.0 0.0 0.0 0.0 0.0 0.0 0.0 0.0 0.0 0.0
11.1 11.9 12.1 12.5 12.5 12.0 12.4 12.6 12.1 11.9 11.7 11.7 11.5 12.5 11.4 10.0 9.7 9.4 10.7 6.5 7.5 0.0 0.0 0.0 0.0 0.0 0.0 0.0 0.0 0.0 0.0 0.0 0.0 0.0 0.0 0.0 0.0 0.0
12.0 10.7 10.5 9.3 6.5 8.1 11.5 12.8 12.6 13.1 12.7 12.7 13.0 12.3 12.9 12.2 12.4 9.9 10.6 7.4 7.1 6.5 5.0 4.3 4.0 2.4 0.3 0.0 0.0 0.0 0.0 0.0 0.0 0.0 0.0 0.0 0.0 0.0
12.6 12.4 12.1 9.9 10.7 9.1 8.5 7.1 10.9 13.7 13.8 14.0 13.2 13.4 12.8 12.1 11.4 10.2 10.7 11.6 12.2 7.5 6.6 6.3 5.4 5.5 4.8 3.0 0.0 0.0 0.0 0.0 0.0 0.0 0.0 0.0 0.0 0.0
12.2 13.4 12.7 11.9 11.7 12.6 10.5 8.9 9.7 8.9 11.5 12.5 13.7 12.9 12.6 11.7 10.2 11.3 12.0 10.8 10.1 7.9 7.2 9.1 7.2 6.6 5.6 1.1 0.0 0.0 0.0 0.0 0.0 0.0 0.0 0.0 0.0 0.0
12.5 12.9 13.7 13.5 12.8 12.0 12.7 13.1 12.9 12.5 11.9 11.3 12.4 11.7 11.3 10.3 11.4 10.7 9.3 7.7 9.7 8.5 8.1 10.8 9.6 8.1 5.5 5.1 0.0 0.0 0.0 0.0 0.0 0.0 0.0 0.0 0.0 0.0
12.7 13.0 12.9 13.2 10.9 9.5 13.7 13.7 13.7 12.9 10.5 8.5 8.1 7.7 6.7 6.5 9.1 12.3 12.0 11.3 12.8 12.6 10.3 10.4 10.2 7.8 6.6 5.1 3.2 0.0 0.0 0.0 0.0 0.0 0.0 0.0 0.0 0.0
13.0 13.2 12.3 12.6 11.5 11.1 14.4 14.5 13.9 13.5 13.1 12.4 11.9 10.3 6.9 6.0 5.9 8.1 11.3 12.4 12.2 12.4 11.1 10.9 10.7 9.4 10.2 5.7 4.0 1.9 0.6 0.0 0.0 0.0 0.0 0.0 0.0 1.9
14.3 15.0 14.2 12.4 12.2 12.2 12.5 14.2 14.0 12.4 12.0 12.6 12.3 12.4 8.9 9.1 7.5 6.1 6.3 10.3 12.1 10.7 8.7 6.9 9.4 9.2 9.4 10.3 7.1 2.9 2.0 1.4 2.0 0.8 0.0 0.0 0.0 1.1
15.9 15.5 15.1 12.8 12.9 13.2 13.7 13.1 13.0 13.5 12.5 12.1 12.6 13.9 13.0 9.7 11.5 8.5 8.5 6.9 6.5 5.7 7.1 6.2 6.6 7.1 9.4 12.3 10.5 6.2 3.6 2.8 3.0 2.6 2.9 2.7 0.3 0.1
14.8 14.1 13.8 13.8 14.2 15.2 14.1 13.8 14.7 15.2 15.2 13.7 13.2 11.9 12.4 10.9 7.5 10.3 6.2 7.8 6.5 5.3 4.9 5.3 6.0 6.8 6.5 8.6 10.3 9.4 7.1 3.2 2.3 2.4 2.7 3.8 4.2 4.6
15.0 15.7 16.1 15.3 16.0 16.3 16.2 15.8 15.8 15.5 15.3 15.2 13.2 8.5 7.9 7.3 8.7 7.1 11.3 11.4 8.8 10.2 6.3 5.2 5.1 6.6 7.4 6.8 7.3 7.3 6.9 5.7 0.7 2.4 3.0 3.9 4.1 4.4
15.8 16.6 17.9 18.4 18.6 18.4 17.6 17.0 16.5 15.7 16.0 14.9 13.4 10.1 8.1 8.3 9.1 8.7 10.1 8.5 10.8 11.6 11.7 8.6 5.7 5.6 6.7 6.2 7.9 7.3 6.2 4.7 0.5 0.5 3.5 4.0 2.7 2.2
16.8 18.8 19.6 19.8 19.9 19.8 19.6 18.9 17.4 16.7 16.1 15.1 13.6 9.1 9.3 9.3 9.9 10.5 9.4 9.1 10.6 10.6 12.4 9.1 8.7 8.2 6.7 6.5 5.6 6.1 6.2 6.5 2.1 0.0 0.0 2.1 1.0 0.0
18.4 19.2 19.9 20.1 20.2 19.9 19.7 19.4 19.3 17.0 15.8 14.9 14.0 12.5 9.3 9.1 10.5 12.5 12.1 11.9 11.7 11.1 11.1 10.5 11.1 10.2 12.7 13.2 6.6 5.7 6.8 5.0 4.1 3.7 2.0 1.7 1.4 0.0
18.2 19.1 20.0 19.8 20.2 20.3 20.0 19.6 19.1 16.9 16.7 15.4 13.7 11.5 8.5 11.1 12.9 12.7 12.3 12.2 11.7 11.3 11.3 9.6 8.8 8.9 10.8 12.8 12.3 6.9 4.6 5.5 5.0 5.1 3.3 1.9 0.0 0.0
18.4 18.9 19.1 19.6 20.0 20.0 20.0 19.4 18.8 17.5 17.1 16.0 14.3 13.1 8.7 12.2 12.6 12.2 11.4 9.6 10.3 10.7 11.2 10.7 7.5 7.5 7.9 9.4 12.5 8.7 5.8 4.7 4.0 4.7 4.8 4.2 1.7 0.0
18.2 18.9 19.0 19.3 19.8 20.1 20.1 19.6 18.9 17.7 17.3 16.7 15.6 14.1 12.8 10.0 10.7 11.0 10.4 11.2 10.7 9.9 10.0 8.8 8.0 7.1 8.0 10.5 12.5 11.9 7.1 6.0 4.5 4.0 3.4 2.4 3.9 2.5
18.6 19.0 19.4 19.7 19.8 20.0 19.9 19.7 19.2 18.2 17.9 16.9 16.6 15.4 13.6 12.3 9.5 8.7 8.2 8.5 9.3 9.0 8.7 8.9 8.2 8.6 8.2 9.0 9.9 9.9 8.8 6.9 7.3 6.4 3.9 3.2 2.2 2.3